Regional Weather Roundup
Issued by NWS Goodland, KS

Home | Current Version | Previous Version | Graphics & Text | Print | Product List | Glossary On
Versions: 1 2 3 4 5 6 7 8 9 10 11 12 13 14 15 16 17 18 19 20 21 22 23 24 25 26 27 28 29 30 31 32 33 34 35 36 37 38 39 40 41 42 43 44 45 46 47 48 49 50
000
ASUS43 KGLD 270659
RWRGLD

GOODLAND FORECAST AREA HOURLY WEATHER ROUNDUP
NATIONAL WEATHER SERVICE GOODLAND KS
1200 AM MST TUE JAN 27 2015

...OFFICIAL OBSERVATIONS...

CITY           SKY/WX    TMP DP  RH WIND       PRES   REMARKS
GOODLAND KS    PTCLDY    42  30  62 W13       30.13F
HILL CITY KS   CLEAR     39  28  64 W7        30.09F
IMPERIAL NEB   PTCLDY    39  28  64 W8        30.09F
MCCOOK NEB     CLEAR     36  29  75 W9        30.08F
AKRON CO       CLEAR     46  28  49 SW15      30.16S
BURLINGTON CO  CLEAR     39  30  70 W12       30.16F
LIMON CO       CLEAR     28  24  85 N8        30.23F
$$

...UNOFFICIAL OBSERVATIONS...

CITY           SKY/WX    TMP DP  RH WIND       PRES   REMARKS
COLBY KS       CLEAR     36  32  87 W7        30.12F
GOVE KS          N/A     34  32  92 MISG        N/A
NORTON KS      CLEAR     34  25  69 SW7       30.08F
SHARON SPRINGS   N/A     38  32  79 W10         N/A
KIT CARSON CO    N/A     35  26  69 MISG        N/A
YUMA CO          N/A     36  28  73 W7          N/A
$$


USA.gov is the U.S. government's official web portal to all federal, state and local government web resources and services.